User: anonymous   Login
Location: Prague
(50.0830°N, 14.4670°E)
Time: 22:24:48
(UTC+01:00)
Language:

STARLINK-1617 - Orbit

View from above orbital plane
View from above orbital plane
View from above satellite
View from above satellite

Ground track
Ground track

The orbit data is extracted from the following two-line orbital elements,

1 46350C 20062AC  20337.42738737  .00005073  00000-0  34748-3 0  3374
2 46350  53.0124  10.4003 0001168  76.6490   9.2753 15.05576632    18
Epoch (UTC): 02 December 2020 10:15:26
Eccentricity: 0.0001168
inclination: 53.0124°
perigee height: 549 km
apogee height: 550 km
right ascension of ascending node: 10.4003°
argument of perigee: 76.6490°
revolutions per day: 15.05576632
mean anomaly at epoch: 9.2753°
orbit number at epoch: 1

The dashed part of the orbit path shows where the satellite is in the earth's shadow,  

DLR